This demonstration page uses our WeatherBlox Daily Observations layout. Learn more.

Left ArrowRight Arrow

Hourly Observations for December 14, 2018

Temp ( °F °C ) Dew Point ( °F °C ) Humidity (%) Winds ( mph kmh ) Pressure ( in mb ) Visibility ( mi km ) Precip ( " mm )
12:53 am 00:53 Clear 29 -1.7 23 -5 78 78 NNW 9 15 30.30 1026 10 16 0.00 0.00
1:53 am 01:53 Clear 27 -2.8 22 -5.6 81 81 NW 7 11 30.30 1026 10 16 0.00 0.00
2:53 am 02:53 Clear 25 -3.9 20 -6.7 81 81 Calm 30.29 1026 10 16 0.00 0.00
3:53 am 03:53 Clear 24 -4.4 19 -7.2 81 81 WNW 5 7 30.30 1026 10 16 0.00 0.00
4:53 am 04:53 Clear 24 -4.4 19 -7.2 81 81 W 7 11 30.30 1026 10 16 0.00 0.00
5:53 am 05:53 Clear 24 -4.4 19 -7.2 81 81 W 6 9 30.32 1027 10 16 0.00 0.00
6:53 am 06:53 Clear 22 -5.6 17 -8.3 82 82 WNW 7 11 30.33 1027 10 16 0.00 0.00
7:53 am 07:53 Sunny 24 -4.4 17 -8.3 75 75 W 5 7 30.33 1027 10 16 0.00 0.00
8:53 am 08:53 Sunny 28 -2.2 20 -6.7 72 72 W 6 9 30.33 1027 10 16 0.00 0.00
9:53 am 09:53 Sunny 33 0.6 23 -5 66 66 W 5 7 30.33 1027 10 16 0.00 0.00
10:53 am 10:53 Sunny 37 2.8 25 -3.9 62 62 WNW 7 11 30.34 1027 10 16 0.00 0.00
11:53 am 11:53 Sunny 41 5 28 -2.2 60 60 W 5 7 30.31 1026 10 16 0.00 0.00
12:53 pm 12:53 Sunny 44 6.7 29 -1.7 55 55 WSW 5 7 30.29 1026 10 16 0.00 0.00
1:53 pm 13:53 Sunny 47 8.3 30 -1.1 52 52 WSW 3 6 30.28 1025 10 16 0.00 0.00
2:53 pm 14:53 Sunny 48 8.9 30 -1.1 50 50 W 6 9 30.28 1025 10 16 0.00 0.00
3:53 pm 15:53 Sunny 47 8.3 31 -0.6 54 54 WSW 3 6 30.28 1025 10 16 0.00 0.00
4:53 pm 16:53 Sunny 43 6.1 31 -0.6 63 63 Calm 30.28 1025 10 16 0.00 0.00
5:53 pm 17:53 Clear 40 4.4 30 -1.1 68 68 WSW 5 7 30.29 1026 10 16 0.00 0.00
6:53 pm 18:53 Clear 35 1.7 29 -1.7 78 78 W 5 7 30.29 1026 10 16 0.00 0.00
7:53 pm 19:53 Clear 33 0.6 28 -2.2 82 82 Calm 30.29 1026 10 16 0.00 0.00
8:53 pm 20:53 Clear 31 -0.6 28 -2.2 89 89 WSW 3 6 30.27 1025 10 16 0.00 0.00
9:53 pm 21:53 Clear 29 -1.7 26 -3.3 89 89 W 3 6 30.27 1025 10 16 0.00 0.00
10:53 pm 22:53 Clear 30 -1.1 25 -3.9 82 82 Calm 30.24 1024 10 16 0.00 0.00
11:53 pm 23:53 Clear 31 -0.6 27 -2.8 85 85 W 5 7 30.23 1024 10 16 0.00 0.00

Powered by AerisWeather